Location: Dead Woman Crossing
(43.5369°N, 106.3228°W)
Time: 21:14:59
(UTC+00:00)

COSMOS 2251 DEB - Pass Details

Date: 03 December 2022
Orbit: 765 x 800 km, 74.0° (Epoch: 31 January)

Event Time Altitude Azimuth Distance (km) Brightness Sun altitude
Rises 01:58:33 0° 334° (NNW) 3,255 ? -26.3°
Reaches altitude 10° 02:01:00 10° 329° (NNW) 2,320 ? -26.7°
Maximum altitude 02:06:03 49° 256° (WSW) 980 ? -27.6°
Drops below altitude 10° 02:11:03 10° 182° (S) 2,294 ? -28.5°
Sets 02:13:28 0° 177° (S) 3,215 ? -29.0°
